Weather History for Toluca Jose Maria, Mexico

Change the Weather History Date:

Tuesday, January 1, 2013

  Actual Average Record
Temperature  
Mean Temperature 49 °F -  
Max Temperature 66 °F 66 °F 73 °F (2000)
Min Temperature 32 °F 30 °F 28 °F (2000)
Degree Days  
Heating Degree Days 16    
Moisture  
Dew Point 37 °F    
Average Humidity 72    
Maximum Humidity 93    
Minimum Humidity 32    
Precipitation  
Precipitation 0.00 in - - ()
Sea Level Pressure  
Sea Level Pressure 30.22 in    
Wind  
Wind Speed 3 mph ()    
Max Wind Speed 20 mph    
Max Gust Speed -    
Visibility 5.1 miles    
Events Fog    
Averages and records for this station are not official NWS values.
T = Trace of Precipitation, MM = Missing Value Source: Averaged Metar Reports

Daily Weather History Graph

Daily Weather History Graph

Search for Another Location

Airport:

Trip Planner

Search our weather history database for the weather conditions in past years. The results will help you decide how hot, cold, wet, or windy it might be!

Date:

Astronomy

Jan. 01, 2013 Rise Set
Actual Time 7:12 AM CST 6:11 PM CST
Civil Twilight 6:48 AM CST 6:35 PM CST
Nautical Twilight 6:21 AM CST 7:03 PM CST
Astronomical Twilight 5:54 AM CST 7:30 PM CST
Moon 10:06 PM CST (1/1) 9:59 AM CST (1/1)
Length of Visible Light 11h 47m
Length of Day
10h 59m
Waning Gibbous, 83% of the Moon is Illuminated
Jan 1
Waning Gibbous
Jan 4
Last Quarter
Jan 11
New
Jan 18
First Quarter
Jan 26
Full

Hourly Weather History & Observations

Time (CST) Temp. Dew Point Humidity Pressure Visibility Wind Dir Wind Speed Gust Speed Precip Events Conditions
12:45 AM 42.8 °F 37.4 °F 81% 30.38 in 2.0 mi Calm Calm - N/A   Haze
1:45 AM 41.0 °F 37.4 °F 87% 30.36 in 2.0 mi Calm Calm - N/A   Haze
2:45 AM 37.4 °F 35.6 °F 93% 29.93 in 2.0 mi Calm Calm - N/A   Haze
3:45 AM 39.2 °F 35.6 °F 87% 30.34 in 2.0 mi Calm Calm - N/A   Haze
4:45 AM 35.6 °F 33.8 °F 93% 30.32 in 0.5 mi Calm Calm - N/A Fog Fog
5:45 AM 32.0 °F 30.2 °F 93% 30.31 in 0.2 mi Calm Calm - N/A Fog Fog
6:30 AM 32.0 °F 30.2 °F 93% 30.33 in 0.2 mi Calm Calm - N/A Fog Fog
6:45 AM 32.0 °F 30.2 °F 93% 30.33 in 0.0 mi Calm Calm - N/A Fog Fog
7:30 AM 32.0 °F 30.2 °F 93% 30.33 in 0.0 mi Calm Calm - N/A Fog Fog
7:45 AM 33.8 °F 30.2 °F 87% 30.34 in 0.0 mi Calm Calm - N/A Fog Fog
8:45 AM 35.6 °F 33.8 °F 93% 30.07 in 0.0 mi Calm Calm - N/A Fog Fog
9:30 AM 41.0 °F 39.2 °F 93% 30.37 in 0.5 mi Calm Calm - N/A Fog Fog
9:45 AM 44.6 °F 42.8 °F 93% 30.37 in 1.0 mi Calm Calm - N/A Fog Fog
10:30 AM 55.4 °F 42.8 °F 63% 30.36 in 2.0 mi SSE 12.7 mph - N/A   Clear
10:45 AM 59.0 °F 42.8 °F 55% 30.36 in 6.0 mi South 16.1 mph - N/A   Scattered Clouds
11:45 AM 62.6 °F 39.2 °F 42% 29.88 in 10.0 mi SSE 19.6 mph - N/A   Scattered Clouds
12:45 PM 60.8 °F 37.4 °F 42% 30.32 in 12.0 mi South 12.7 mph - N/A   Scattered Clouds
1:45 PM 66.2 °F 35.6 °F 32% 30.27 in - North - - N/A   Mostly Cloudy
2:45 PM 66.2 °F 37.4 °F 35% 29.78 in 10.0 mi SSE 16.1 mph - N/A   Mostly Cloudy
3:45 PM 62.6 °F 35.6 °F 37% 30.25 in 10.0 mi South 19.6 mph - N/A   Mostly Cloudy
4:45 PM 60.8 °F 39.2 °F 45% 30.25 in 10.0 mi South 16.1 mph - N/A   Mostly Cloudy
5:45 PM 59.0 °F 39.2 °F 48% 29.91 in 10.0 mi SSE 18.4 mph - N/A   Mostly Cloudy
6:45 PM 53.6 °F 41.0 °F 62% 30.28 in 10.0 mi SSE 13.8 mph - N/A   Scattered Clouds
7:45 PM 50.0 °F 39.2 °F 66% 30.29 in 10.0 mi ESE 5.8 mph - N/A   Clear
8:45 PM 48.2 °F 39.2 °F 71% 30.01 in 10.0 mi Calm Calm - N/A   Clear
9:42 PM 46.4 °F 39.2 °F 76% 30.31 in 10.0 mi Calm Calm - N/A   Clear
10:43 PM 41.0 °F 35.6 °F 81% 30.30 in 10.0 mi Calm Calm - N/A   Clear
11:45 PM 37.4 °F 33.8 °F 87% 29.91 in 8.0 mi Calm Calm - N/A   Clear